Time,TemperatureF,DewpointF,PressureIn,WindDirection,WindDirectionDegrees,WindSpeedMPH,WindSpeedGustMPH,Humidity,HourlyPrecipIn,Conditions,Clouds,dailyrainin,SoftwareType,DateUTC
2013-03-08 00:00:00,37.3,25.1,29.96,NW,322,1.0,1.0,61,0.00,,,0.00,Wunderground v.1.15,2013-03-08 05:00:00,
2013-03-08 00:05:00,37.3,24.7,29.96,NW,322,1.0,1.0,60,0.00,,,0.00,Wunderground v.1.15,2013-03-08 05:05:00,
2013-03-08 00:10:00,37.0,24.8,29.96,NW,322,1.0,1.0,61,0.00,,,0.00,Wunderground v.1.15,2013-03-08 05:10:00,
2013-03-08 00:16:00,37.1,24.9,29.96,NW,322,1.0,3.0,61,0.00,,,0.00,Wunderground v.1.15,2013-03-08 05:16:00,
2013-03-08 00:20:00,37.1,24.9,29.96,NW,324,2.0,2.0,61,0.00,,,0.00,Wunderground v.1.15,2013-03-08 05:20:00,
2013-03-08 00:25:00,36.9,24.7,29.96,NNW,337,3.0,4.0,61,0.00,,,0.00,Wunderground v.1.15,2013-03-08 05:25:00,
2013-03-08 00:30:00,36.9,24.3,29.96,NNW,337,3.0,3.0,60,0.00,,,0.00,Wunderground v.1.15,2013-03-08 05:30:00,
2013-03-08 00:35:00,36.9,24.3,29.96,NNW,337,2.0,3.0,60,0.00,,,0.00,Wunderground v.1.15,2013-03-08 05:35:00,
2013-03-08 00:40:00,37.0,24.0,29.96,NNW,336,2.0,2.0,59,0.00,,,0.00,Wunderground v.1.15,2013-03-08 05:40:00,
2013-03-08 00:45:00,37.2,23.8,29.96,NNW,336,2.0,2.0,58,0.00,,,0.00,Wunderground v.1.15,2013-03-08 05:45:00,
2013-03-08 00:55:00,37.3,23.9,29.96,NNW,336,1.0,1.0,58,0.00,,,0.00,Wunderground v.1.15,2013-03-08 05:55:00,
2013-03-08 01:00:00,37.1,23.7,29.96,NNW,336,0.0,0.0,58,0.00,,,0.00,Wunderground v.1.15,2013-03-08 06:00:00,
2013-03-08 01:10:00,35.9,23.0,29.96,NNW,337,1.0,2.0,59,0.00,,,0.00,Wunderground v.1.15,2013-03-08 06:10:00,
2013-03-08 01:20:00,35.8,23.7,29.97,NNW,337,0.0,0.0,61,0.00,,,0.00,Wunderground v.1.15,2013-03-08 06:20:00,
2013-03-08 01:25:00,35.6,23.5,29.97,NNW,337,0.0,0.0,61,0.00,,,0.00,Wunderground v.1.15,2013-03-08 06:25:00,
2013-03-08 01:30:00,35.6,23.1,29.97,NNW,337,0.0,2.0,60,0.00,,,0.00,Wunderground v.1.15,2013-03-08 06:30:00,
2013-03-08 01:40:00,35.0,22.5,29.98,NNW,337,0.0,0.0,60,0.00,,,0.00,Wunderground v.1.15,2013-03-08 06:40:00,
2013-03-08 01:45:00,35.1,22.2,29.98,NNW,337,0.0,0.0,59,0.00,,,0.00,Wunderground v.1.15,2013-03-08 06:45:00,
2013-03-08 01:55:00,34.9,22.0,29.98,NNW,337,0.0,0.0,59,0.00,,,0.00,Wunderground v.1.15,2013-03-08 06:55:00,
2013-03-08 02:01:00,34.7,21.8,29.98,NNW,337,0.0,0.0,59,0.00,,,0.00,Wunderground v.1.15,2013-03-08 07:01:00,
2013-03-08 02:10:00,33.5,22.2,29.98,NNW,337,0.0,0.0,63,0.00,,,0.00,Wunderground v.1.15,2013-03-08 07:10:00,
2013-03-08 02:15:00,33.4,21.8,29.98,NNW,337,0.0,0.0,62,0.00,,,0.00,Wunderground v.1.15,2013-03-08 07:15:00,
2013-03-08 02:25:00,34.0,22.0,29.98,North,351,1.0,2.0,61,0.00,,,0.00,Wunderground v.1.15,2013-03-08 07:25:00,
2013-03-08 02:35:00,33.7,22.1,29.98,North,351,0.0,1.0,62,0.00,,,0.00,Wunderground v.1.15,2013-03-08 07:35:00,
2013-03-08 02:40:00,33.4,22.1,29.98,North,351,0.0,1.0,63,0.00,,,0.00,Wunderground v.1.15,2013-03-08 07:40:00,
2013-03-08 02:46:00,33.0,21.8,29.98,North,351,0.0,1.0,63,0.00,,,0.00,Wunderground v.1.15,2013-03-08 07:46:00,
2013-03-08 02:55:00,33.6,21.2,29.98,North,351,0.0,0.0,60,0.00,,,0.00,Wunderground v.1.15,2013-03-08 07:55:00,
2013-03-08 03:00:00,33.5,21.1,29.98,North,351,0.0,0.0,60,0.00,,,0.00,Wunderground v.1.15,2013-03-08 08:00:00,
2013-03-08 03:05:00,32.8,20.8,29.99,North,351,0.0,0.0,61,0.00,,,0.00,Wunderground v.1.15,2013-03-08 08:05:00,
2013-03-08 03:10:00,33.6,21.2,29.99,North,351,0.0,0.0,60,0.00,,,0.00,Wunderground v.1.15,2013-03-08 08:10:00,
2013-03-08 03:15:00,32.9,21.3,29.99,North,351,0.0,0.0,62,0.00,,,0.00,Wunderground v.1.15,2013-03-08 08:15:00,
2013-03-08 03:20:00,32.1,20.5,29.99,North,351,0.0,0.0,62,0.00,,,0.00,Wunderground v.1.15,2013-03-08 08:20:00,
2013-03-08 03:30:00,31.1,20.0,30.00,North,351,0.0,0.0,63,0.00,,,0.00,Wunderground v.1.15,2013-03-08 08:30:00,
2013-03-08 03:35:00,30.4,20.4,30.00,North,350,0.0,0.0,66,0.00,,,0.00,Wunderground v.1.15,2013-03-08 08:35:00,
2013-03-08 03:45:00,30.4,21.4,30.00,North,351,0.0,0.0,69,0.00,,,0.00,Wunderground v.1.15,2013-03-08 08:45:00,
2013-03-08 03:55:00,29.7,21.1,30.00,North,351,0.0,0.0,70,0.00,,,0.00,Wunderground v.1.15,2013-03-08 08:55:00,
2013-03-08 04:00:00,29.1,21.5,30.00,North,351,0.0,0.0,73,0.00,,,0.00,Wunderground v.1.15,2013-03-08 09:00:00,
2013-03-08 04:05:00,29.2,21.3,30.01,North,351,0.0,0.0,72,0.00,,,0.00,Wunderground v.1.15,2013-03-08 09:05:00,
2013-03-08 04:15:00,29.9,21.3,30.01,North,351,0.0,0.0,70,0.00,,,0.00,Wunderground v.1.15,2013-03-08 09:15:00,
2013-03-08 04:25:00,28.8,21.2,30.01,North,351,0.0,0.0,73,0.00,,,0.00,Wunderground v.1.15,2013-03-08 09:25:00,
2013-03-08 04:30:00,29.5,21.3,30.01,North,351,0.0,0.0,71,0.00,,,0.00,Wunderground v.1.15,2013-03-08 09:30:00,
2013-03-08 04:35:00,29.2,21.3,30.01,North,351,0.0,0.0,72,0.00,,,0.00,Wunderground v.1.15,2013-03-08 09:35:00,
2013-03-08 04:45:00,28.2,21.0,30.01,North,351,0.0,0.0,74,0.00,,,0.00,Wunderground v.1.15,2013-03-08 09:45:00,
2013-03-08 04:55:00,29.4,21.5,30.01,NNW,347,1.0,3.0,72,0.00,,,0.00,Wunderground v.1.15,2013-03-08 09:55:00,
2013-03-08 05:01:00,29.6,21.3,30.01,NNW,347,1.0,1.0,71,0.00,,,0.00,Wunderground v.1.15,2013-03-08 10:01:00,
2013-03-08 05:10:00,29.5,21.3,30.02,NNW,347,1.0,1.0,71,0.00,,,0.00,Wunderground v.1.15,2013-03-08 10:10:00,
2013-03-08 05:15:00,29.4,20.8,30.03,NNW,347,0.0,1.0,70,0.00,,,0.00,Wunderground v.1.15,2013-03-08 10:15:00,
2013-03-08 05:25:00,29.2,20.6,30.03,NNW,347,0.0,0.0,70,0.00,,,0.00,Wunderground v.1.15,2013-03-08 10:25:00,
2013-03-08 05:31:00,28.7,20.8,30.03,NNW,347,0.0,0.0,72,0.00,,,0.00,Wunderground v.1.15,2013-03-08 10:31:00,
2013-03-08 05:40:00,26.9,21.0,30.03,NNW,347,0.0,0.0,78,0.00,,,0.00,Wunderground v.1.15,2013-03-08 10:40:00,
2013-03-08 05:45:00,27.3,21.0,30.04,NNW,347,0.0,2.0,77,0.00,,,0.00,Wunderground v.1.15,2013-03-08 10:45:00,
2013-03-08 05:50:00,29.7,21.8,30.03,NNW,347,1.0,1.0,72,0.00,,,0.00,Wunderground v.1.15,2013-03-08 10:50:00,
2013-03-08 05:55:00,31.3,21.6,30.03,NNW,347,1.0,1.0,67,0.00,,,0.00,Wunderground v.1.15,2013-03-08 10:55:00,
2013-03-08 06:05:00,31.9,21.8,30.04,NNW,347,0.0,0.0,66,0.00,,,0.00,Wunderground v.1.15,2013-03-08 11:05:00,
2013-03-08 06:10:00,30.1,21.2,30.05,NNW,347,0.0,0.0,69,0.00,,,0.00,Wunderground v.1.15,2013-03-08 11:10:00,
2013-03-08 06:15:00,30.7,21.7,30.05,NNW,347,0.0,2.0,69,0.00,,,0.00,Wunderground v.1.15,2013-03-08 11:15:00,
2013-03-08 06:25:00,31.1,21.1,30.05,NNW,347,1.0,1.0,66,0.00,,,0.00,Wunderground v.1.15,2013-03-08 11:25:00,
2013-03-08 06:35:00,30.7,21.4,30.05,NNW,347,0.0,1.0,68,0.00,,,0.00,Wunderground v.1.15,2013-03-08 11:35:00,
2013-03-08 06:40:00,30.5,21.2,30.06,NNW,347,0.0,0.0,68,0.00,,,0.00,Wunderground v.1.15,2013-03-08 11:40:00,
2013-03-08 06:46:00,30.0,21.1,30.06,NNW,347,0.0,0.0,69,0.00,,,0.00,Wunderground v.1.15,2013-03-08 11:46:00,
2013-03-08 06:55:00,28.1,20.6,30.06,NNW,347,0.0,0.0,73,0.00,,,0.00,Wunderground v.1.15,2013-03-08 11:55:00,
2013-03-08 07:00:00,28.5,21.6,30.06,NNW,347,0.0,0.0,75,0.00,,,0.00,Wunderground v.1.15,2013-03-08 12:00:00,
2013-03-08 07:10:00,30.2,23.5,30.07,NNW,347,0.0,0.0,76,0.00,,,0.00,Wunderground v.1.15,2013-03-08 12:10:00,
2013-03-08 07:15:00,30.4,23.4,30.08,NNW,347,0.0,0.0,75,0.00,,,0.00,Wunderground v.1.15,2013-03-08 12:15:00,
2013-03-08 07:25:00,31.1,24.4,30.08,NNW,347,0.0,0.0,76,0.00,,,0.00,Wunderground v.1.15,2013-03-08 12:25:00,
2013-03-08 07:31:00,31.6,24.3,30.07,NNW,347,0.0,0.0,74,0.00,,,0.00,Wunderground v.1.15,2013-03-08 12:31:00,
2013-03-08 07:40:00,30.5,24.5,30.07,NNW,347,0.0,0.0,78,0.00,,,0.00,Wunderground v.1.15,2013-03-08 12:40:00,
2013-03-08 07:50:00,32.2,24.8,30.07,NNW,347,0.0,0.0,74,0.00,,,0.00,Wunderground v.1.15,2013-03-08 12:50:00,
2013-03-08 07:55:00,32.5,25.1,30.07,NW,322,0.0,1.0,74,0.00,,,0.00,Wunderground v.1.15,2013-03-08 12:55:00,
2013-03-08 08:01:00,33.0,25.3,30.07,WSW,251,1.0,2.0,73,0.00,,,0.00,Wunderground v.1.15,2013-03-08 13:01:00,
2013-03-08 08:10:00,32.3,25.9,30.08,SW,230,1.0,3.0,77,0.00,,,0.00,Wunderground v.1.15,2013-03-08 13:10:00,
2013-03-08 08:16:00,32.4,24.7,30.08,SW,227,1.0,3.0,73,0.00,,,0.00,Wunderground v.1.15,2013-03-08 13:16:00,
2013-03-08 08:25:00,32.8,25.7,30.08,SW,226,0.0,1.0,75,0.00,,,0.00,Wunderground v.1.15,2013-03-08 13:25:00,
2013-03-08 08:31:00,34.2,25.8,30.08,SW,226,0.0,0.0,71,0.00,,,0.00,Wunderground v.1.15,2013-03-08 13:31:00,
2013-03-08 08:40:00,36.2,27.4,30.08,SW,227,1.0,1.0,70,0.00,,,0.00,Wunderground v.1.15,2013-03-08 13:40:00,
2013-03-08 08:46:00,36.6,27.0,30.08,SW,232,1.0,1.0,68,0.00,,,0.00,Wunderground v.1.15,2013-03-08 13:46:00,
2013-03-08 08:55:00,37.6,26.9,30.08,WSW,239,2.0,2.0,65,0.00,,,0.00,Wunderground v.1.15,2013-03-08 13:55:00,
2013-03-08 09:05:00,39.2,28.0,30.08,SW,220,3.0,4.0,64,0.00,,,0.00,Wunderground v.1.15,2013-03-08 14:05:00,
2013-03-08 09:16:00,39.6,28.4,30.08,SW,220,2.0,4.0,64,0.00,,,0.00,Wunderground v.1.15,2013-03-08 14:16:00,
2013-03-08 09:21:00,40.2,27.8,30.08,SW,227,2.0,2.0,61,0.00,,,0.00,Wunderground v.1.15,2013-03-08 14:21:00,
2013-03-08 09:31:00,40.3,27.9,30.09,SW,216,3.0,3.0,61,0.00,,,0.00,Wunderground v.1.15,2013-03-08 14:31:00,
2013-03-08 09:40:00,41.3,28.4,30.08,SW,215,2.0,3.0,60,0.00,,,0.00,Wunderground v.1.15,2013-03-08 14:40:00,
2013-03-08 09:46:00,41.9,27.8,30.08,SW,230,3.0,3.0,57,0.00,,,0.00,Wunderground v.1.15,2013-03-08 14:46:00,
2013-03-08 09:55:00,42.8,28.6,30.07,WSW,251,4.0,4.0,57,0.00,,,0.00,Wunderground v.1.15,2013-03-08 14:55:00,
2013-03-08 10:05:00,43.3,28.6,30.07,SSW,206,4.0,5.0,56,0.00,,,0.00,Wunderground v.1.15,2013-03-08 15:05:00,
2013-03-08 10:10:00,43.6,28.5,30.07,SW,216,4.0,6.0,55,0.00,,,0.00,Wunderground v.1.15,2013-03-08 15:10:00,
2013-03-08 10:16:00,44.3,30.4,30.06,SSW,205,3.0,3.0,58,0.00,,,0.00,Wunderground v.1.15,2013-03-08 15:16:00,
2013-03-08 10:25:00,45.4,29.3,30.06,SSW,201,4.0,4.0,53,0.00,,,0.00,Wunderground v.1.15,2013-03-08 15:25:00,
2013-03-08 10:30:00,45.5,27.9,30.05,South,172,2.0,4.0,50,0.00,,,0.00,Wunderground v.1.15,2013-03-08 15:30:00,
2013-03-08 10:35:00,45.6,29.4,30.05,South,172,1.0,1.0,53,0.00,,,0.00,Wunderground v.1.15,2013-03-08 15:35:00,
2013-03-08 10:46:00,47.9,30.6,30.05,WSW,240,3.0,5.0,51,0.00,,,0.00,Wunderground v.1.15,2013-03-08 15:46:00,
2013-03-08 10:55:00,48.7,29.9,30.05,SSW,212,4.0,6.0,48,0.00,,,0.00,Wunderground v.1.15,2013-03-08 15:55:00,
2013-03-08 11:01:00,48.9,29.5,30.06,SW,214,5.0,5.0,47,0.00,,,0.00,Wunderground v.1.15,2013-03-08 16:01:00,
2013-03-08 11:10:00,49.1,29.2,30.05,SW,217,5.0,5.0,46,0.00,,,0.00,Wunderground v.1.15,2013-03-08 16:10:00,
2013-03-08 11:16:00,49.6,29.1,30.05,SSW,209,4.0,5.0,45,0.00,,,0.00,Wunderground v.1.15,2013-03-08 16:16:00,
2013-03-08 11:25:00,50.9,29.7,30.04,SSW,201,4.0,6.0,44,0.00,,,0.00,Wunderground v.1.15,2013-03-08 16:25:00,
2013-03-08 11:31:00,51.5,27.3,30.04,SSW,213,4.0,4.0,39,0.00,,,0.00,Wunderground v.1.15,2013-03-08 16:31:00,
2013-03-08 11:40:00,51.5,27.9,30.04,SW,214,2.0,7.0,40,0.00,,,0.00,Wunderground v.1.15,2013-03-08 16:40:00,
2013-03-08 11:50:00,53.3,28.9,30.03,South,189,3.0,4.0,39,0.00,,,0.00,Wunderground v.1.15,2013-03-08 16:50:00,
2013-03-08 11:55:00,53.3,28.9,30.03,South,191,3.0,3.0,39,0.00,,,0.00,Wunderground v.1.15,2013-03-08 16:55:00,
2013-03-08 12:05:00,54.2,27.1,30.03,SSW,210,4.0,10.0,35,0.00,,,0.00,Wunderground v.1.15,2013-03-08 17:05:00,
2013-03-08 12:16:00,55.0,27.8,30.02,SW,226,3.0,4.0,35,0.00,,,0.00,Wunderground v.1.15,2013-03-08 17:16:00,
2013-03-08 12:21:00,56.2,28.9,30.02,WNW,288,3.0,6.0,35,0.00,,,0.00,Wunderground v.1.15,2013-03-08 17:21:00,
2013-03-08 12:31:00,56.3,27.5,30.02,SW,223,3.0,3.0,33,0.00,,,0.00,Wunderground v.1.15,2013-03-08 17:31:00,
2013-03-08 12:40:00,57.7,26.4,30.02,SW,230,4.0,4.0,30,0.00,,,0.00,Wunderground v.1.15,2013-03-08 17:40:00,
2013-03-08 12:50:00,58.2,26.1,30.02,SSW,205,3.0,6.0,29,0.00,,,0.00,Wunderground v.1.15,2013-03-08 17:50:00,
2013-03-08 13:01:00,59.0,27.6,30.01,WSW,243,7.0,7.0,30,0.00,,,0.00,Wunderground v.1.15,2013-03-08 18:01:00,
2013-03-08 13:10:00,59.8,28.3,30.00,SSW,201,5.0,6.0,30,0.00,,,0.00,Wunderground v.1.15,2013-03-08 18:10:00,
2013-03-08 13:20:00,60.5,27.2,30.00,WSW,237,6.0,6.0,28,0.00,,,0.00,Wunderground v.1.15,2013-03-08 18:20:00,
2013-03-08 13:25:00,60.4,25.3,30.00,West,280,5.0,6.0,26,0.00,,,0.00,Wunderground v.1.15,2013-03-08 18:25:00,
2013-03-08 13:31:00,59.9,23.0,29.99,NNE,22,4.0,4.0,24,0.00,,,0.00,Wunderground v.1.15,2013-03-08 18:31:00,
2013-03-08 13:40:00,59.9,23.0,29.99,South,181,1.0,1.0,24,0.00,,,0.00,Wunderground v.1.15,2013-03-08 18:40:00,
2013-03-08 13:46:00,61.2,27.8,29.99,ENE,75,1.0,6.0,28,0.00,,,0.00,Wunderground v.1.15,2013-03-08 18:46:00,
2013-03-08 13:55:00,60.9,19.5,29.98,NE,34,5.0,6.0,20,0.00,,,0.00,Wunderground v.1.15,2013-03-08 18:55:00,
2013-03-08 14:01:00,61.1,19.7,29.98,North,352,5.0,6.0,20,0.00,,,0.00,Wunderground v.1.15,2013-03-08 19:01:00,
2013-03-08 14:10:00,61.3,19.8,29.97,North,10,6.0,6.0,20,0.00,,,0.00,Wunderground v.1.15,2013-03-08 19:10:00,
2013-03-08 14:20:00,60.8,19.4,29.97,NE,36,6.0,6.0,20,0.00,,,0.00,Wunderground v.1.15,2013-03-08 19:20:00,
2013-03-08 14:25:00,60.8,19.4,29.97,North,10,6.0,6.0,20,0.00,,,0.00,Wunderground v.1.15,2013-03-08 19:25:00,
2013-03-08 14:31:00,61.3,22.1,29.97,NNW,345,6.0,6.0,22,0.00,,,0.00,Wunderground v.1.15,2013-03-08 19:31:00,
2013-03-08 14:35:00,61.3,21.0,29.97,NW,315,6.0,9.0,21,0.00,,,0.00,Wunderground v.1.15,2013-03-08 19:35:00,
2013-03-08 14:46:00,61.6,21.2,29.97,ENE,70,6.0,6.0,21,0.00,,,0.00,Wunderground v.1.15,2013-03-08 19:46:00,
2013-03-08 14:55:00,61.9,21.5,29.96,East,91,5.0,7.0,21,0.00,,,0.00,Wunderground v.1.15,2013-03-08 19:55:00,
2013-03-08 15:05:00,62.1,20.5,29.96,NNE,18,2.0,7.0,20,0.00,,,0.00,Wunderground v.1.15,2013-03-08 20:05:00,
2013-03-08 15:10:00,62.3,20.7,29.96,NNE,15,5.0,7.0,20,0.00,,,0.00,Wunderground v.1.15,2013-03-08 20:10:00,
2013-03-08 15:21:00,62.3,21.8,29.95,ENE,77,6.0,6.0,21,0.00,,,0.00,Wunderground v.1.15,2013-03-08 20:21:00,
2013-03-08 15:35:00,61.8,21.4,29.96,NE,35,9.0,10.0,21,0.00,,,0.00,Wunderground v.1.15,2013-03-08 20:35:00,
2013-03-08 15:40:00,61.9,22.6,29.96,NE,48,7.0,10.0,22,0.00,,,0.00,Wunderground v.1.15,2013-03-08 20:40:00,
2013-03-08 15:50:00,61.8,19.0,29.97,NNW,343,6.0,10.0,19,0.00,,,0.00,Wunderground v.1.15,2013-03-08 20:50:00,
2013-03-08 15:55:00,62.0,18.0,29.96,NNE,30,6.0,6.0,18,0.00,,,0.00,Wunderground v.1.15,2013-03-08 20:55:00,
2013-03-08 16:05:00,62.1,18.0,29.96,NNE,32,4.0,4.0,18,0.00,,,0.00,Wunderground v.1.15,2013-03-08 21:05:00,
2013-03-08 16:10:00,61.9,19.1,29.96,North,353,5.0,6.0,19,0.00,,,0.00,Wunderground v.1.15,2013-03-08 21:10:00,
2013-03-08 16:16:00,62.1,20.5,29.96,NE,50,6.0,6.0,20,0.00,,,0.00,Wunderground v.1.15,2013-03-08 21:16:00,
2013-03-08 16:25:00,62.0,20.4,29.96,NE,51,5.0,5.0,20,0.00,,,0.00,Wunderground v.1.15,2013-03-08 21:25:00,
2013-03-08 16:31:00,61.8,17.8,29.96,ENE,64,4.0,5.0,18,0.00,,,0.00,Wunderground v.1.15,2013-03-08 21:31:00,
2013-03-08 16:40:00,61.8,20.3,29.95,NW,307,5.0,5.0,20,0.00,,,0.00,Wunderground v.1.15,2013-03-08 21:40:00,
2013-03-08 16:46:00,61.8,19.0,29.95,NE,49,3.0,5.0,19,0.00,,,0.00,Wunderground v.1.15,2013-03-08 21:46:00,
2013-03-08 16:55:00,61.8,19.0,29.95,NE,54,4.0,4.0,19,0.00,,,0.00,Wunderground v.1.15,2013-03-08 21:55:00,
2013-03-08 17:00:00,61.8,20.3,29.95,NE,45,4.0,4.0,20,0.00,,,0.00,Wunderground v.1.15,2013-03-08 22:00:00,
2013-03-08 17:05:00,61.8,21.4,29.95,ENE,60,2.0,4.0,21,0.00,,,0.00,Wunderground v.1.15,2013-03-08 22:05:00,
2013-03-08 17:15:00,61.4,22.2,29.96,ENE,59,1.0,2.0,22,0.00,,,0.00,Wunderground v.1.15,2013-03-08 22:15:00,
2013-03-08 17:25:00,61.1,19.7,29.96,North,10,1.0,1.0,20,0.00,,,0.00,Wunderground v.1.15,2013-03-08 22:25:00,
2013-03-08 17:30:00,61.0,19.6,29.96,NNW,343,1.0,1.0,20,0.00,,,0.00,Wunderground v.1.15,2013-03-08 22:30:00,
2013-03-08 17:40:00,60.7,20.5,29.96,NW,325,3.0,5.0,21,0.00,,,0.00,Wunderground v.1.15,2013-03-08 22:40:00,
2013-03-08 17:46:00,60.5,22.5,29.97,WNW,293,3.0,5.0,23,0.00,,,0.00,Wunderground v.1.15,2013-03-08 22:46:00,
2013-03-08 17:55:00,60.0,22.0,29.97,NW,312,3.0,4.0,23,0.00,,,0.00,Wunderground v.1.15,2013-03-08 22:55:00,
2013-03-08 18:00:00,59.7,20.7,29.97,NW,312,3.0,3.0,22,0.00,,,0.00,Wunderground v.1.15,2013-03-08 23:00:00,
2013-03-08 18:05:00,59.6,21.7,29.97,NW,318,2.0,3.0,23,0.00,,,0.00,Wunderground v.1.15,2013-03-08 23:05:00,
2013-03-08 18:10:00,59.3,22.5,29.98,NNW,331,3.0,4.0,24,0.00,,,0.00,Wunderground v.1.15,2013-03-08 23:10:00,
2013-03-08 18:20:00,58.7,21.0,29.98,NW,324,2.0,2.0,23,0.00,,,0.00,Wunderground v.1.15,2013-03-08 23:20:00,
2013-03-08 18:25:00,58.3,20.6,29.98,NNW,332,1.0,2.0,23,0.00,,,0.00,Wunderground v.1.15,2013-03-08 23:25:00,
2013-03-08 18:31:00,58.1,20.4,29.99,North,360,2.0,5.0,23,0.00,,,0.00,Wunderground v.1.15,2013-03-08 23:31:00,
2013-03-08 18:40:00,57.1,21.6,29.99,NNE,16,4.0,4.0,25,0.00,,,0.00,Wunderground v.1.15,2013-03-08 23:40:00,
2013-03-08 18:46:00,56.6,20.2,29.99,North,10,5.0,5.0,24,0.00,,,0.00,Wunderground v.1.15,2013-03-08 23:46:00,
2013-03-08 18:55:00,56.1,20.7,29.99,NNE,16,5.0,5.0,25,0.00,,,0.00,Wunderground v.1.15,2013-03-08 23:55:00,
2013-03-08 19:00:00,56.0,21.6,29.99,North,360,4.0,4.0,26,0.00,,,0.00,Wunderground v.1.15,2013-03-09 00:00:00,
2013-03-08 19:05:00,55.6,21.2,29.99,North,10,4.0,6.0,26,0.00,,,0.00,Wunderground v.1.15,2013-03-09 00:05:00,
2013-03-08 19:10:00,55.3,21.0,29.99,North,350,4.0,5.0,26,0.00,,,0.00,Wunderground v.1.15,2013-03-09 00:10:00,
2013-03-08 19:16:00,54.2,21.8,29.99,NNE,15,4.0,5.0,28,0.00,,,0.00,Wunderground v.1.15,2013-03-09 00:16:00,
2013-03-08 19:25:00,51.1,21.5,29.99,NE,52,2.0,4.0,31,0.00,,,0.00,Wunderground v.1.15,2013-03-09 00:25:00,
2013-03-08 19:30:00,51.1,22.2,29.99,NE,52,2.0,2.0,32,0.00,,,0.00,Wunderground v.1.15,2013-03-09 00:30:00,
2013-03-08 19:35:00,50.4,22.3,29.99,NE,52,1.0,2.0,33,0.00,,,0.00,Wunderground v.1.15,2013-03-09 00:35:00,
2013-03-08 19:45:00,50.0,22.0,30.00,NE,38,1.0,1.0,33,0.00,,,0.00,Wunderground v.1.15,2013-03-09 00:45:00,
2013-03-08 19:55:00,51.7,22.8,30.01,NNW,339,2.0,3.0,32,0.00,,,0.00,Wunderground v.1.15,2013-03-09 00:55:00,
2013-03-08 20:00:00,51.9,22.2,30.01,North,351,2.0,2.0,31,0.00,,,0.00,Wunderground v.1.15,2013-03-09 01:00:00,
2013-03-08 20:10:00,51.4,22.5,30.00,North,10,1.0,1.0,32,0.00,,,0.00,Wunderground v.1.15,2013-03-09 01:10:00,
2013-03-08 20:16:00,51.5,23.3,30.00,North,10,1.0,1.0,33,0.00,,,0.00,Wunderground v.1.15,2013-03-09 01:16:00,
2013-03-08 20:25:00,50.5,22.4,30.00,NNE,19,1.0,3.0,33,0.00,,,0.00,Wunderground v.1.15,2013-03-09 01:25:00,
2013-03-08 20:30:00,49.2,23.4,30.00,NNE,33,2.0,2.0,36,0.00,,,0.00,Wunderground v.1.15,2013-03-09 01:30:00,
2013-03-08 20:35:00,48.4,23.9,30.00,NE,34,2.0,3.0,38,0.00,,,0.00,Wunderground v.1.15,2013-03-09 01:35:00,
2013-03-08 20:45:00,47.9,22.8,30.00,NNE,21,4.0,6.0,37,0.00,,,0.00,Wunderground v.1.15,2013-03-09 01:45:00,
2013-03-08 20:55:00,48.2,23.7,30.00,NNE,25,3.0,3.0,38,0.00,,,0.00,Wunderground v.1.15,2013-03-09 01:55:00,
2013-03-08 21:00:00,48.5,23.4,30.00,NNE,17,2.0,2.0,37,0.00,,,0.00,Wunderground v.1.15,2013-03-09 02:00:00,
2013-03-08 21:05:00,48.8,22.3,30.00,NNE,17,1.0,2.0,35,0.00,,,0.00,Wunderground v.1.15,2013-03-09 02:05:00,
2013-03-08 21:15:00,48.6,22.1,30.00,NNE,17,0.0,0.0,35,0.00,,,0.00,Wunderground v.1.15,2013-03-09 02:15:00,
2013-03-08 21:20:00,47.5,21.8,30.00,NNE,17,0.0,0.0,36,0.00,,,0.00,Wunderground v.1.15,2013-03-09 02:20:00,
2013-03-08 21:25:00,46.4,22.1,30.00,NNE,17,0.0,0.0,38,0.00,,,0.00,Wunderground v.1.15,2013-03-09 02:25:00,
2013-03-08 21:31:00,46.7,23.0,30.00,NNE,17,0.0,0.0,39,0.00,,,0.00,Wunderground v.1.15,2013-03-09 02:31:00,
2013-03-08 21:40:00,46.4,22.8,30.01,NNE,17,0.0,0.0,39,0.00,,,0.00,Wunderground v.1.15,2013-03-09 02:40:00,
2013-03-08 21:45:00,46.2,22.6,30.01,NNE,17,0.0,0.0,39,0.00,,,0.00,Wunderground v.1.15,2013-03-09 02:45:00,
2013-03-08 21:55:00,44.5,22.8,30.01,NNE,30,1.0,2.0,42,0.00,,,0.00,Wunderground v.1.15,2013-03-09 02:55:00,
2013-03-08 22:05:00,44.2,22.5,30.01,NE,47,3.0,3.0,42,0.00,,,0.00,Wunderground v.1.15,2013-03-09 03:05:00,
2013-03-08 22:10:00,44.6,22.9,30.00,NE,46,3.0,3.0,42,0.00,,,0.00,Wunderground v.1.15,2013-03-09 03:10:00,
2013-03-08 22:16:00,44.9,23.2,30.00,NE,46,2.0,3.0,42,0.00,,,0.00,Wunderground v.1.15,2013-03-09 03:16:00,
2013-03-08 22:25:00,45.1,22.8,30.00,NE,52,2.0,2.0,41,0.00,,,0.00,Wunderground v.1.15,2013-03-09 03:25:00,
2013-03-08 22:30:00,44.7,23.5,30.00,NE,52,1.0,1.0,43,0.00,,,0.00,Wunderground v.1.15,2013-03-09 03:30:00,
2013-03-08 22:35:00,44.4,23.3,30.01,NE,52,1.0,1.0,43,0.00,,,0.00,Wunderground v.1.15,2013-03-09 03:35:00,
2013-03-08 22:45:00,43.8,22.7,30.01,NE,52,1.0,3.0,43,0.00,,,0.00,Wunderground v.1.15,2013-03-09 03:45:00,
2013-03-08 22:50:00,43.6,23.1,30.01,NE,52,1.0,1.0,44,0.00,,,0.00,Wunderground v.1.15,2013-03-09 03:50:00,
2013-03-08 23:00:00,44.4,23.3,30.01,NE,52,0.0,0.0,43,0.00,,,0.00,Wunderground v.1.15,2013-03-09 04:00:00,
2013-03-08 23:05:00,44.1,23.6,30.00,NE,52,0.0,0.0,44,0.00,,,0.00,Wunderground v.1.15,2013-03-09 04:05:00,
2013-03-08 23:10:00,43.4,23.4,30.01,NE,52,1.0,1.0,45,0.00,,,0.00,Wunderground v.1.15,2013-03-09 04:10:00,
2013-03-08 23:20:00,43.1,23.2,30.01,NE,52,2.0,2.0,45,0.00,,,0.00,Wunderground v.1.15,2013-03-09 04:20:00,
2013-03-08 23:25:00,43.7,23.2,30.01,NE,52,2.0,2.0,44,0.00,,,0.00,Wunderground v.1.15,2013-03-09 04:25:00,
2013-03-08 23:30:00,43.6,23.6,30.01,NE,52,2.0,3.0,45,0.00,,,0.00,Wunderground v.1.15,2013-03-09 04:30:00,
2013-03-08 23:35:00,42.4,23.1,30.01,NE,52,2.0,3.0,46,0.00,,,0.00,Wunderground v.1.15,2013-03-09 04:35:00,
2013-03-08 23:40:00,41.6,22.8,30.01,NE,52,2.0,2.0,47,0.00,,,0.00,Wunderground v.1.15,2013-03-09 04:40:00,
2013-03-08 23:50:00,42.2,23.4,30.01,NE,52,1.0,2.0,47,0.00,,,0.00,Wunderground v.1.15,2013-03-09 04:50:00,